Hourly Data Report for April 04, 2021

MIRAMICHI RCS
NEW BRUNSWICK
Current Station Operator: ECCC - MSC

47°00'34.000" N
65°27'54.000" W
33.00 m
8100989
71744
ACQ

Download Data

Hourly Data (April 2021)
Hourly Data Report for April 4, 2021
TIME
LST
Temp Definition
°C
Dew Point Definition
°C
Rel Hum Definition
%
Precip. Amount Definition
mm

Wind Dir Definition
10's deg

Wind Spd Definition
km/h
Visibility Definition
km
Stn Press Definition
kPa
Hmdx Definition


Wind Chill Definition


Weather Definition


00:00 -2.4 -8.9 61 LegendMM 1 6   101.63   -5 LegendNANA
01:00 -2.6 -9.1 61 LegendMM 36 7   101.59   -5 LegendNANA
02:00 -2.9 -8.8 63 LegendMM 1 7   101.56   -6 LegendNANA
03:00 -3.3 -8.7 66 LegendMM 35 6   101.50   -6 LegendNANA
04:00 -3.5 -8.8 67 LegendMM 35 8   101.44   -7 LegendNANA
05:00 -3.3 -8.6 67 LegendMM 35 10   101.38   -7 LegendNANA
06:00 -3.3 -8.3 68 LegendMM 35 6   101.37   -6 LegendNANA
07:00 -3.2 -8.3 68 LegendMM 35 9   101.33   -7 LegendNANA
08:00 -2.7 -8.8 63 LegendMM 35 11   101.29   -7 LegendNANA
09:00 -2.0 -8.7 60 LegendMM 36 10   101.19   -6 LegendNANA
10:00 -1.2 -8.5 58 LegendMM 36 11   101.15   -5 LegendNANA
11:00 -0.8 -6.8 64 LegendMM 36 12   101.03   -5 LegendNANA
12:00 -1.7 -4.7 80 LegendMM 35 14   100.92   -6 LegendNANA
13:00 -2.1 -3.5 90 LegendMM 36 12   100.85   -6 LegendNANA
14:00 -1.5 -2.8 90 LegendMM 34 13   100.74   -6 LegendNANA
15:00 -0.7 -1.9 92 LegendMM 35 11   100.67   -4 LegendNANA
16:00 0.0 -1.3 91 LegendMM 1 12   100.59   -4 LegendNANA
17:00 0.7 -0.6 91 LegendMM 2 13   100.54     LegendNANA
18:00 1.1 0.1 93 LegendMM 2 17   100.49     LegendNANA
19:00 1.3 0.6 95 LegendMM 2 18   100.44     LegendNANA
20:00 1.5 0.8 95 LegendMM 3 15   100.44     LegendNANA
21:00 1.9 1.3 96 LegendMM 3 14   100.46     LegendNANA
22:00 2.6 2.0 96 LegendMM 4 17   100.43     LegendNANA
23:00 2.9 2.4 96 LegendMM 3 15   100.38     LegendNANA

Notes on Data Quality.

Legend

  • E = Estimated
  • M = Missing
  • NA = Not Available*
  • [empty] = Indicates an unobserved value
Date modified: